TimeEST,TemperatureF,Dew PointF,Humidity,Sea Level PressureIn,VisibilityMPH,Wind Direction,Wind SpeedMPH,Gust SpeedMPH,PrecipitationIn,Events,Conditions,WindDirDegrees,DateUTC
12:24 AM,39.0,33.1,79,30.47,10.0,NE,8.1,-,N/A,,Overcast,50,2012-12-01 05:24:00
12:51 AM,39.0,32.0,76,30.45,10.0,ENE,10.4,16.1,N/A,,Overcast,60,2012-12-01 05:51:00
1:49 AM,37.4,30.2,75,30.47,10.0,ENE,12.7,-,N/A,,Overcast,60,2012-12-01 06:49:00
1:51 AM,37.9,30.0,73,30.45,10.0,ENE,11.5,-,N/A,,Overcast,70,2012-12-01 06:51:00
2:10 AM,37.9,30.0,73,30.48,10.0,East,10.4,-,N/A,,Overcast,80,2012-12-01 07:10:00
2:51 AM,37.9,30.0,73,30.46,10.0,ENE,9.2,-,N/A,,Overcast,60,2012-12-01 07:51:00
3:51 AM,37.0,28.0,70,30.45,10.0,ENE,12.7,18.4,N/A,,Overcast,60,2012-12-01 08:51:00
4:20 AM,37.0,28.0,70,30.48,10.0,ENE,13.8,24.2,N/A,,Overcast,70,2012-12-01 09:20:00
4:51 AM,36.0,28.9,76,30.46,10.0,ENE,12.7,19.6,N/A,,Overcast,60,2012-12-01 09:51:00
5:26 AM,36.0,28.9,76,30.49,10.0,East,12.7,19.6,N/A,,Overcast,80,2012-12-01 10:26:00
5:51 AM,36.0,28.9,76,30.47,10.0,ENE,9.2,-,N/A,,Overcast,60,2012-12-01 10:51:00
6:51 AM,37.0,30.0,76,30.48,10.0,ENE,10.4,-,N/A,,Overcast,60,2012-12-01 11:51:00
7:51 AM,37.0,30.0,76,30.50,10.0,ENE,9.2,17.3,N/A,,Overcast,60,2012-12-01 12:51:00
8:51 AM,37.0,30.0,76,30.51,10.0,ENE,8.1,-,N/A,,Overcast,60,2012-12-01 13:51:00
9:51 AM,37.9,30.0,73,30.53,10.0,Variable,6.9,19.6,N/A,,Overcast,0,2012-12-01 14:51:00
10:24 AM,37.0,30.9,79,30.55,10.0,ENE,15.0,20.7,N/A,,Overcast,60,2012-12-01 15:24:00
10:51 AM,37.0,30.9,79,30.51,10.0,ENE,11.5,20.7,N/A,,Overcast,60,2012-12-01 15:51:00
11:51 AM,37.9,33.1,83,30.47,9.0,ENE,13.8,20.7,N/A,,Overcast,60,2012-12-01 16:51:00
12:51 PM,39.0,34.0,82,30.47,9.0,ENE,9.2,-,N/A,,Overcast,70,2012-12-01 17:51:00
1:51 PM,39.0,34.0,82,30.45,8.0,ENE,11.5,18.4,N/A,,Overcast,60,2012-12-01 18:51:00
2:51 PM,39.0,34.0,82,30.45,7.0,ENE,5.8,-,N/A,,Overcast,60,2012-12-01 19:51:00
3:24 PM,39.0,35.1,86,30.47,7.0,Variable,6.9,-,N/A,,Overcast,0,2012-12-01 20:24:00
3:51 PM,39.0,35.1,86,30.45,6.0,East,11.5,16.1,N/A,,Overcast,80,2012-12-01 20:51:00
4:51 PM,39.0,36.0,89,30.47,7.0,ENE,6.9,17.3,N/A,,Overcast,60,2012-12-01 21:51:00
5:51 PM,39.9,36.0,86,30.48,7.0,ENE,9.2,-,N/A,,Overcast,70,2012-12-01 22:51:00
6:51 PM,39.9,37.0,89,30.48,6.0,Variable,3.5,-,N/A,,Overcast,0,2012-12-01 23:51:00
7:51 PM,41.0,37.0,86,30.46,5.0,ENE,8.1,-,N/A,,Overcast,70,2012-12-02 00:51:00
8:51 PM,41.0,37.9,89,30.45,5.0,ENE,9.2,-,N/A,,Overcast,70,2012-12-02 01:51:00
9:51 PM,41.0,37.9,89,30.44,4.0,Variable,4.6,-,N/A,,Overcast,0,2012-12-02 02:51:00
10:51 PM,41.0,37.9,89,30.43,4.0,Variable,4.6,-,N/A,,Overcast,0,2012-12-02 03:51:00
11:51 PM,41.0,37.9,89,30.43,4.0,NE,5.8,-,N/A,,Overcast,40,2012-12-02 04:51:00